EHI
0 0 0 0 0 0 0 0 0 0 0 0 0 0 0 0 0 0 0 0 0 0 0 0 0 0 0 0 0 0 0 0 0 0 0 0 0 0 0 0 0 0 0 0
0 0 0 0 0 0 0 0 0 0 0 0 0 0 0 0 0 0 0 0 0 0 0 0 0 0 0 0 0 0 0 0 0 0 0 0 0 0 0 0 0 0 0 0
0 0 0 0 0 0 0 0 0 0 0 0 0 0 0 0 0 0 0 0 0 0 0 0 0 0 0 0 0 0 0 0 0 0 0 0 0 0 0 0 0 0 0 0
0 0 0 0 0 0 0 0 0 0 0 0 0 0 0 0 0 0 0 0 0 0 0 0 0 0 0 0 0 0 0 0 0 0 0 0 0 0 0 0 0 0 0 0
0 0 0 0 0 0 0 0 0 0 0 0 0 0 0 0 0 0 0 0 0 0 0 0 0 0 0 0 0 0 0 0 0 0 0 0 0 0 0 0 0 0 0 0
0 0 0 0 0 0 0 0 0 0 0 0 0 0 0 0 0 0 0 0 0 0 0 0 0 0 0 0 0 0 0 0 0 0 0 0 0 0 0 0 0 0 0 0
0 0 0 0 0 0 0 0 0 0 0 0 0 0 0 0 0 0 0 0 0 0 0 0 0 0 0 0 0 0 0 0 0 0 0 0 0 0 0 0 0 0 0 0
0 0 0 0 0 0 0 0 0 0 0 0 0 0 0 0 0 0 0 0 0 0 0 0 0 0 0 0 0 0 0 0 0 0 0 0 0 0 0 0 0 0 0 0
0 0 0 0 0 0 0 0 0 0 0 0 0 0 0 0 0 0 0 0 0 0 0 0 0 0 0 0 0 0 0 0 0 0 0 0 0 0 0 0 0 0 0 0
0 0 0 0 0 0 0 0 0 0 0 0 0 0 0 0 0 0 0 0 0 0 0 0 0 0 0 0 0 0 0 0 0 0 0 0 0 0 0 0 0 0 0 0
0 0 0 0 0 0 0 0 0 0 0 0 0 0 0 0 0 0 0 0 0 0 0 0 0 0 0 0 0 0 0 0 0 0 0 0 0 0 0 0 0 0 0 0
0 0 0 0 0 0 0 0 0 0 0 0 0 0 0 0 0 0 0 0 0 0 0 0 0 0 0 0 0 0 0 0 0 0 0 0 0 0 0 0 0 0 0 0
0 0 0 0 0 0 0 0 0 0 0 0 0 0 0 0 0 0 0 0 0 0 0 0 0 0 0 0 0 0 0 0 0 0 0 0 0 0 0 0 0 0 0 0
0 0 0 0 0 0 0 0 0 0 0 0 0 0 0 0 0 0 0 0 0 0 0 0 0 0 0 0 0 0 0 0 0 0 0 0 0 0 0 0 0 0 0 0
0 0 0 0 0 0 0 0 0 0 0 0 0 0 0 0 0 0 0 0 0 0 0 0 0 0 0 0 0 0 0 0 0 0 0 0 0 0 0 0 0 0 0 0
0 0 0 0 0 0 0 0 0 0 0 0 0 0 0 0 0 0 0 0 0 0 0 0 0 0 0 0 0 0 0 0 0 0 0 0 0 0 0 0 0 0 0 0
0 0 0 0 0 0 0 0 0 0 0 0 0 0 0 0 0 0 0 0 0 0 0 0 0 0 0 0 0 0 0 0 0 0 0 0 0 0 0 0 0 0 0 0
0 0 0 0 0 0 0 0 0 0 0 0 0 0 0 0 0 0 0 0 0 0 0 0 0 0 0 0 0 0 0 0 0 0 0 0 0 0 0 0 0 0 0 0
0 0 0 0 0 0 0 0 0 0 0 0 0 0 0 0 0 0 0 0 0 0 0 0 0 0 0 0 0 0 0 0 0 0 0 0 0 0 0 0 0 0 0 0
0 0 0 0 0 0 0 0 0 0 0 0 0 0 0 0 0 0 0 0 0 0 0 0 0 0 0 0 0 0 0 0 0 0 0 0 0 0 0 0 0 0 0 0
0 0 0 0 0 0 0 0 0 0 0 0 0 0 0 0 0 0 0 0 0 0 0 0 0 0 0 0 0 0 0 0 0 0 0 0 0 0 0 0 0 0 0 0
0 0 0 0 0 0 0 0 0 0 0 0 0 0 0 0 0 0 0 0 0 0 0 0 0 0 0 0 0 0 0 0 0 0 0 0 0 0 0 0 0 0 0 0
0 0 0 0 0 0 0 0 0 0 0 0 0 0 0 0 0 0 0 0 0 0 0 0 0 0 0 0 0 0 0 0 0 0 0 0 0 0 0 0 0 0 0 0
0 0 0 0 0 0 0 0 0 0 0 0 0 0 0 0 0 0 0 0 0 0 0 0 0 0 0 0 0 0 0 0 0 0 0 0 0 0 0 0 0 0 0 0
0 0 0 0 0 0 0 0 0 0 0 0 0 0 0 0 0 0 0 0 0 0 0 0 0 0 0 0 0 0 0 0 0 0 0 0 0 0 0 0 0 0 0 0
0 0 0 0 0 0 0 0 0 0 0 0 0 0 0 0 0 0 0 0 0 0 0 0 0 0 0 0 0 0 0 0 0 0 0 0 0 0 0 0 0 0 0 0
0 0 0 0 0 0 0 0 0 0 0 0 0 0 0 0 0 0 0 0 0 0 0 0 0 0 0 0 0 0 0 0 0 0 0 0 0 0 0 0 0 0 0 0
Wind_Speed
1 3 3 4 8 10 9 7 5 3 3 8 8 6 5 5 5 4 5 5 4 3 3 4 4 4 4 5 5 6 6 6 6 6 7 7 8 8 9 9 10 9 9 9
1 3 2 4 7 10 11 11 8 5 4 0 4 5 4 4 4 4 5 5 4 4 4 4 4 4 4 5 5 5 6 6 6 6 7 7 7 8 9 9 9 9 9 9
2 3 1 8 13 14 11 8 10 11 7 3 4 4 4 4 4 4 6 6 5 4 4 4 3 3 3 4 4 5 5 6 7 7 7 8 8 8 9 9 9 9 9 9
1 2 7 5 1 8 11 11 9 6 5 5 4 3 4 4 4 6 7 6 5 5 4 4 3 3 3 4 4 5 6 6 7 7 7 7 8 8 8 8 8 8 9 9
2 4 7 5 4 4 5 6 11 9 5 2 3 2 2 4 5 6 7 7 6 5 5 4 3 3 3 4 5 5 6 6 6 6 6 7 7 7 6 7 7 7 7 8
3 3 4 2 5 3 3 4 6 9 7 5 4 2 3 6 7 7 7 6 6 5 5 4 4 4 4 4 4 5 5 5 5 5 5 6 6 5 5 5 6 6 6 5
4 4 5 2 5 4 3 1 4 5 5 4 4 3 6 8 7 7 7 7 6 5 5 4 4 4 5 4 3 3 4 4 4 4 4 4 4 4 4 4 4 4 4 3
5 6 6 5 5 3 2 4 5 6 4 4 5 6 7 7 7 8 7 7 6 5 5 4 4 5 5 4 3 3 4 3 3 3 3 3 3 3 2 3 3 2 2 2
6 5 2 5 3 3 4 4 3 3 3 4 4 5 6 7 8 8 8 7 6 6 6 5 4 5 6 5 4 4 4 4 3 3 2 2 2 2 1 1 2 1 2 2
3 4 5 5 4 3 3 3 3 3 3 3 3 4 6 7 7 8 8 8 7 7 7 6 5 5 6 6 5 5 4 4 3 3 3 3 3 3 3 3 2 2 2 1
4 3 2 4 5 6 5 4 4 3 1 2 2 3 5 6 7 8 8 8 8 8 7 7 7 6 6 6 6 5 5 4 3 3 3 3 3 3 3 3 3 2 2 2
4 4 4 4 5 5 5 4 3 2 1 1 2 3 4 5 6 7 8 8 8 8 8 8 8 7 6 6 6 6 5 4 3 2 2 3 3 2 4 3 4 5 3 2
1 3 5 6 6 5 4 3 2 0 2 3 3 3 4 4 5 6 8 9 9 9 8 8 8 7 7 6 6 6 5 4 3 3 2 2 2 2 1 1 2 1 1 1
1 3 4 3 4 4 3 2 1 2 3 3 3 2 3 3 4 6 7 8 8 8 8 8 8 8 7 7 6 5 5 5 4 3 3 2 2 1 1 0 1 2 2 3
1 2 4 5 4 3 2 1 1 2 2 2 2 2 3 4 4 5 5 6 7 8 8 8 8 8 8 7 6 6 5 4 3 3 3 2 2 2 1 0 1 2 2 2
3 4 4 4 3 2 1 1 2 3 3 3 3 3 3 4 4 4 5 7 8 9 9 9 9 8 8 8 7 5 5 7 6 4 3 3 2 2 1 1 2 2 2 2
4 4 3 2 1 1 1 2 2 3 4 4 4 3 3 3 3 4 5 6 6 6 7 8 8 8 8 8 8 5 5 5 7 4 3 3 3 2 2 2 2 2 2 3
5 4 4 3 2 2 2 3 3 4 4 5 5 3 3 4 4 4 4 5 4 4 5 6 7 8 8 8 7 5 5 5 4 4 3 3 3 2 2 2 2 3 3 3
4 4 4 4 3 3 3 3 4 5 5 5 4 3 3 3 3 3 4 5 6 6 6 7 12 10 8 9 8 5 5 6 5 4 3 5 4 3 3 3 3 3 3 3
4 4 4 4 4 3 3 4 5 5 4 5 4 3 2 1 1 2 4 5 5 4 5 8 9 8 8 9 10 5 6 6 5 5 4 4 4 3 3 3 3 3 3 3
4 4 4 4 3 3 4 4 5 5 5 5 4 4 3 2 1 1 2 3 3 4 6 11 7 6 7 8 11 6 6 6 6 5 5 4 4 4 4 4 4 4 3 4
3 3 4 4 4 3 3 3 4 5 5 5 4 4 3 2 1 1 2 2 2 6 5 5 5 8 10 11 6 6 6 6 5 5 5 4 4 4 4 4 4 4 4 4
3 3 4 4 4 3 3 4 5 4 4 4 4 4 3 2 2 2 2 1 2 6 4 4 8 13 15 9 6 6 6 6 6 5 5 5 4 4 4 4 4 4 4 4
3 3 3 4 4 3 4 4 4 4 4 4 3 3 3 2 2 1 2 3 4 6 4 6 11 14 14 6 5 6 6 5 5 5 4 4 4 4 4 4 4 4 4 5
1 1 2 3 3 2 3 4 4 4 4 3 4 4 3 2 2 2 2 3 5 5 3 6 11 13 8 5 5 5 5 5 5 5 5 4 4 4 4 4 4 4 4 5
1 1 1 1 1 2 2 2 3 3 3 3 3 3 3 2 3 2 2 2 3 4 2 3 4 7 5 5 5 5 5 5 5 5 5 5 5 4 4 4 5 4 4 5
2 2 2 2 1 1 1 2 2 3 3 3 4 3 3 3 3 3 3 2 2 2 2 2 3 3 4 4 5 5 4 4 4 4 4 4 4 4 4 5 4 4 4 5
Wind_Direction
29 58 126 186 196 194 197 208 213 233 184 178 177 169 147 133 134 137 133 121 108 86 67 56 49 38 25 20 15 11 21 26 20 20 22 24 27 30 32 35 38 39 42 42
229 197 194 230 223 211 210 220 236 263 281 330 115 120 139 150 151 152 138 125 113 99 83 64 55 41 31 29 24 25 32 33 27 30 31 32 36 39 42 42 41 45 48 49
215 165 230 247 221 210 205 200 208 224 227 181 154 167 163 149 153 150 133 125 118 106 94 81 72 57 42 42 41 41 42 41 39 41 42 41 45 48 49 48 48 51 51 55
205 163 240 237 127 189 207 214 208 213 206 191 171 140 127 132 147 139 132 131 125 115 106 96 88 80 70 60 58 55 50 47 47 49 51 49 51 52 52 52 53 54 53 56
206 242 265 217 170 170 185 220 207 210 214 194 119 109 144 122 113 123 125 121 120 118 119 114 106 102 95 78 69 63 55 50 51 56 61 59 58 57 58 64 62 59 57 56
222 247 263 89 133 149 172 239 187 184 192 185 146 191 188 142 123 119 119 121 126 129 126 122 120 115 102 90 81 70 63 62 62 63 68 68 66 66 65 71 74 72 68 62
235 248 269 133 135 141 189 181 106 122 136 144 159 162 144 140 135 135 133 134 135 137 133 133 133 123 116 110 98 91 88 81 77 78 83 85 81 80 84 85 85 84 82 73
200 224 244 144 146 185 134 89 84 89 94 107 113 120 138 147 148 148 147 148 149 144 141 148 150 141 137 140 139 125 114 105 98 98 103 111 110 108 110 110 98 93 86 68
198 211 168 154 147 115 110 110 102 107 111 123 138 157 163 164 163 165 164 164 160 157 160 170 171 160 160 173 170 154 144 138 134 128 116 113 113 106 89 78 82 75 77 72
237 214 172 168 158 136 120 120 119 117 127 149 171 173 172 173 173 174 174 172 168 169 175 182 183 175 167 169 172 160 149 144 141 131 115 83 57 52 57 39 47 53 56 47
242 246 180 186 179 163 144 131 124 116 140 186 198 197 185 184 183 182 179 173 173 180 183 183 178 175 163 165 165 155 148 143 135 128 121 101 79 65 80 66 68 75 61 43
220 213 191 180 159 145 140 139 132 142 199 233 225 227 208 197 186 181 179 175 178 183 183 177 172 171 166 165 165 156 153 158 158 155 140 136 133 103 81 110 83 72 65 42
221 44 84 99 85 81 96 91 79 268 258 259 248 234 224 210 190 180 179 182 186 187 182 173 170 172 169 165 167 161 161 164 161 163 162 158 149 153 176 194 186 175 136 3
86 108 122 124 118 92 82 63 6 299 279 263 254 243 230 217 198 190 190 187 182 179 178 174 172 176 169 164 163 162 158 160 159 165 161 159 157 147 136 149 280 270 229 248
8 72 108 104 107 108 97 62 319 294 289 280 265 248 234 225 218 209 192 173 168 173 178 178 179 177 163 163 165 163 154 157 162 156 149 146 142 136 139 212 276 288 295 282
135 101 97 102 109 101 75 8 323 318 320 304 282 262 247 236 229 209 184 168 173 186 186 185 186 174 162 163 164 162 162 165 158 153 154 154 154 166 197 236 264 278 284 281
136 144 138 136 140 103 50 12 343 326 317 307 296 282 257 234 225 211 193 182 184 187 184 186 182 167 166 167 165 163 157 165 166 156 164 168 171 187 202 222 250 265 269 278
66 81 87 83 65 36 14 2 342 323 311 306 301 284 256 232 227 217 191 171 169 176 182 179 170 167 172 172 167 160 157 161 167 170 166 171 179 188 198 222 248 262 266 283
69 70 65 60 44 22 5 354 338 323 318 314 304 285 265 247 232 199 167 170 184 199 196 180 177 173 175 179 168 157 156 160 167 169 167 188 192 192 206 224 241 251 259 263
71 64 58 54 44 28 15 359 342 336 339 332 321 312 305 290 237 183 181 198 206 200 174 176 177 177 178 178 170 161 163 166 171 173 173 180 191 203 211 223 234 244 252 258
68 61 53 43 35 39 27 3 350 346 346 350 349 342 328 312 254 185 198 226 214 171 170 181 179 178 176 177 175 168 171 173 176 178 181 188 198 207 214 223 235 243 250 258
61 55 46 34 27 28 20 12 2 353 355 357 357 354 347 335 316 268 237 237 202 184 179 183 180 184 183 179 176 174 176 177 178 178 183 190 197 208 217 223 231 241 249 256
51 44 36 25 10 359 16 25 7 355 352 349 346 342 331 310 286 266 277 261 201 203 194 190 192 192 189 180 176 178 179 180 182 184 188 193 199 206 215 224 230 238 247 254
35 35 24 2 354 9 10 355 341 335 334 333 339 338 331 318 302 270 273 261 238 225 210 202 200 200 192 180 175 178 182 185 183 183 186 191 198 205 213 223 233 240 247 257
15 0 1 355 357 353 339 331 334 342 347 343 343 346 344 326 300 293 285 267 257 241 213 210 209 205 192 174 179 181 183 188 186 181 186 192 201 209 217 223 231 241 249 255
285 306 305 295 296 310 318 325 328 330 336 335 332 329 327 320 311 304 291 277 270 243 213 201 205 204 186 177 181 182 183 192 201 194 191 195 204 211 220 227 236 241 249 256
248 259 273 281 270 275 297 306 313 318 323 322 316 313 316 315 313 310 303 288 276 241 208 199 197 190 180 177 180 182 182 185 188 188 189 195 203 213 222 228 235 243 251 259